Preview of NWS' New Version of Forecast
This preview is not operational and should not be used for support decisions.

Regional Weather Roundup (RWR)

Issued by National Weather Service (NWS)

                            
673 
ASUS42 KFFC 230710
RWRGA 
WEATHER ROUNDUP FOR GEORGIA
NATIONAL WEATHER SERVICE PEACHTREE CITY GA
300 AM EDT MON APR 23 2018

NOTE: "FAIR" INDICATES FEW OR NO CLOUDS BELOW 12,000 FEET WITH NO
SIGNIFICANT WEATHER AND/OR OBSTRUCTIONS TO VISIBILITY. 

* = USE WITH CAUTION. THE STATIONS MARKED WITH AN ASTERISK MAY NOT
REPORT WEATHER SUCH AS PRECIPITATION, FOG, OR THUNDER AND ARE NOT 
QUALITY CONTROLLED BY NWS.

THE REMARK "TC" DENOTES TEMPERATURE READING IN DEGREES CELSIUS.

GAZ001>058-230800-
NORTH GEORGIA
  
CITY           SKY/WX    TMP DP  RH WIND       PRES   REMARKS
ATLANTA        RAIN      58  58 100 SE17G23   29.96F FOG              
ATHENS         LGT RAIN  56  56 100 E9        30.04F                  
CHAMBLEE       RAIN      57  55  93 VRB6      29.97F FOG              
PEACHTREE CITY RAIN      60  58  92 SE13      29.96F FOG              
ROME           LGT RAIN  60  59  96 SE10      29.95F FOG              
WEST ATLANTA   RAIN      59  58  96 E9        29.95F FOG              
GAINESVILLE    HVY RAIN  55  54  96 E17G25    30.06F FOG              
CARTERSVILLE   RAIN      58  58 100 SE8       29.98S FOG              

  
CITY           SKY/WX    TMP DP  RH WIND       PRES   REMARKS
DALTON*        DRIZZLE   57  55  94 SE15G24   29.96F                  
LAWRENCEVILLE* LGT RAIN  56  55  97 E16G23    30.01F                  
MARIETTA       RAIN     N/A N/A N/A E16G23    29.98F                  
KENNESAW*      LGT RAIN  58  56  93 E14G28    29.98F                  
CANTON*        HVY RAIN  57  55  94 E13G24    30.00F                  
BLAIRSVILLE*   RAIN      54  51  89 SE15G26   30.06S FOG              
$$

GAZ059>098-102>109-230800-
CENTRAL GEORGIA
  
CITY           SKY/WX    TMP DP  RH WIND       PRES   REMARKS
AUGUSTA-BUSH   LGT RAIN  59  57  93 E7        30.10F                  
AUGUSTA-DANIEL LGT RAIN  60  56  86 E12G20    30.11F                  
COLUMBUS       HVY RAIN  64  63  96 CALM      29.91S VSB 1            
MACON          RAIN      62  61  96 SE15G25   29.96F FOG              
ROBINS AFB     LGT RAIN  62  61  95 SE15G21   29.96F                  

  
CITY           SKY/WX    TMP DP  RH WIND       PRES   REMARKS
LAGRANGE*      HVY RAIN  63  62  98 CALM      29.94S                  
SYLVANIA*      CLOUDY    63  63 100 SE7       30.11F                  
MILLEDGEVILLE* LGT RAIN  61  59  94 SE9G20    30.01F                  
$$

GAZ099>101-110>166-230800-
SOUTH GEORGIA
  
CITY           SKY/WX    TMP DP  RH WIND       PRES   REMARKS
SAVANNAH       LGT RAIN  65  63  93 E16       30.09F                  
VALDOSTA       LGT RAIN  67  66  97 S6        29.97F FOG              
ALMA           CLOUDY    66  63  90 SE8       30.00F                  
FT STEWART     CLOUDY    64  63  94 E15G21    30.05F                  
ALBANY         LGT RAIN  67  66  97 SE14      29.95F                  
HUNTER AFB     FAIR      65  62  88 E12       30.06F                  
MOODY AFB      HVY RAIN  68  68 100 W16       29.96F FOG              
BRUNSWICK      CLOUDY    66  63  88 E14G24    30.06F                  

  
CITY           SKY/WX    TMP DP  RH WIND       PRES   REMARKS
BAINBRIDGE*      N/A     70  70 100 S3        29.94F                  
MOULTRIE*      CLOUDY    68  66  94 SE6       29.97F                  
VIDALIA*       CLOUDY    64  63  94 SE12G20   30.04F                  
WAYCROSS*      DRIZZLE   66  64  90 SE10G17   30.01F                  
DOUGLAS*       LGT RAIN  64  63  94 SE7       30.02S                  
$$